Year,Month,Day,Hour,Minute,Value (Times are PST for temperature in C)
2019,11,24,00,00,9.60
2019,11,24,00,01,9.60
2019,11,24,00,02,9.60
2019,11,24,00,03,9.50
2019,11,24,00,04,9.50
2019,11,24,00,05,9.40
2019,11,24,00,06,9.40
2019,11,24,00,07,9.40
2019,11,24,00,08,9.40
2019,11,24,00,09,9.40
2019,11,24,00,10,9.40
2019,11,24,00,11,9.30
2019,11,24,00,12,9.30
2019,11,24,00,13,9.30
2019,11,24,00,14,9.30
2019,11,24,00,15,9.30
2019,11,24,00,16,9.30
2019,11,24,00,17,9.20
2019,11,24,00,18,9.20
2019,11,24,00,19,9.20
2019,11,24,00,20,9.20
2019,11,24,00,21,9.20
2019,11,24,00,22,9.20
2019,11,24,00,23,9.10
2019,11,24,00,24,9.10
2019,11,24,00,25,9.10
2019,11,24,00,26,9.10
2019,11,24,00,27,9.00
2019,11,24,00,28,9.00
2019,11,24,00,29,8.90
2019,11,24,00,30,8.90
2019,11,24,00,31,8.90
2019,11,24,00,32,8.80
2019,11,24,00,33,8.80
2019,11,24,00,34,8.80
2019,11,24,00,35,8.70
2019,11,24,00,36,8.70
2019,11,24,00,37,8.70
2019,11,24,00,38,8.70
2019,11,24,00,39,8.60
2019,11,24,00,40,8.60
2019,11,24,00,41,8.60
2019,11,24,00,42,8.60
2019,11,24,00,43,8.60
2019,11,24,00,44,8.60
2019,11,24,00,45,8.60
2019,11,24,00,46,8.60
2019,11,24,00,47,8.60
2019,11,24,00,48,8.60
2019,11,24,00,49,8.60
2019,11,24,00,50,8.60
2019,11,24,00,51,8.60
2019,11,24,00,52,8.60
2019,11,24,00,53,8.60
2019,11,24,00,54,8.60
2019,11,24,00,55,8.60
2019,11,24,00,56,8.60
2019,11,24,00,57,8.60
2019,11,24,00,58,8.60
2019,11,24,00,59,8.60
2019,11,24,01,00,8.60
2019,11,24,01,01,8.60
2019,11,24,01,02,8.60
2019,11,24,01,03,8.60
2019,11,24,01,04,8.60
2019,11,24,01,05,8.60
2019,11,24,01,06,8.60
2019,11,24,01,07,8.50
2019,11,24,01,08,8.50
2019,11,24,01,09,8.50
2019,11,24,01,10,8.40
2019,11,24,01,11,8.40
2019,11,24,01,12,8.40
2019,11,24,01,13,8.40
2019,11,24,01,14,8.40
2019,11,24,01,15,8.30
2019,11,24,01,16,8.30
2019,11,24,01,17,8.30
2019,11,24,01,18,8.30
2019,11,24,01,19,8.20
2019,11,24,01,20,8.20
2019,11,24,01,21,8.20
2019,11,24,01,22,8.20
2019,11,24,01,23,8.20
2019,11,24,01,24,8.20
2019,11,24,01,25,8.10
2019,11,24,01,26,8.10
2019,11,24,01,27,8.10
2019,11,24,01,28,8.10
2019,11,24,01,29,8.00
2019,11,24,01,30,8.00
2019,11,24,01,31,8.00
2019,11,24,01,32,8.00
2019,11,24,01,33,7.90
2019,11,24,01,34,7.90
2019,11,24,01,35,7.90
2019,11,24,01,36,7.90
2019,11,24,01,37,7.90
2019,11,24,01,38,7.80
2019,11,24,01,39,7.80
2019,11,24,01,40,7.80
2019,11,24,01,41,7.70
2019,11,24,01,42,7.70
2019,11,24,01,43,7.70
2019,11,24,01,44,7.70
2019,11,24,01,45,7.60
2019,11,24,01,46,7.60
2019,11,24,01,47,7.60
2019,11,24,01,48,7.50
2019,11,24,01,49,7.50
2019,11,24,01,50,7.40
2019,11,24,01,51,7.40
2019,11,24,01,52,7.40
2019,11,24,01,53,7.30
2019,11,24,01,54,7.30
2019,11,24,01,55,7.20
2019,11,24,01,56,7.20
2019,11,24,01,57,7.20
2019,11,24,01,58,7.10
2019,11,24,01,59,7.10
2019,11,24,02,00,7.10
2019,11,24,02,01,7.10
2019,11,24,02,02,7.10
2019,11,24,02,03,7.10
2019,11,24,02,04,7.10
2019,11,24,02,05,7.10
2019,11,24,02,06,7.10
2019,11,24,02,07,7.20
2019,11,24,02,08,7.20
2019,11,24,02,09,7.30
2019,11,24,02,10,7.30
2019,11,24,02,11,7.30
2019,11,24,02,12,7.30
2019,11,24,02,13,7.30
2019,11,24,02,14,7.30
2019,11,24,02,15,7.20
2019,11,24,02,16,7.20
2019,11,24,02,17,7.20
2019,11,24,02,18,7.10
2019,11,24,02,19,7.10
2019,11,24,02,20,7.10
2019,11,24,02,21,7.00
2019,11,24,02,22,7.00
2019,11,24,02,23,7.00
2019,11,24,02,24,6.90
2019,11,24,02,25,6.90
2019,11,24,02,26,6.90
2019,11,24,02,27,6.80
2019,11,24,02,28,6.80
2019,11,24,02,29,6.80
2019,11,24,02,30,6.80
2019,11,24,02,31,6.80
2019,11,24,02,32,6.80
2019,11,24,02,33,6.80
2019,11,24,02,34,6.80
2019,11,24,02,35,6.80
2019,11,24,02,36,6.80
2019,11,24,02,37,6.80
2019,11,24,02,38,6.70
2019,11,24,02,39,6.70
2019,11,24,02,40,6.70
2019,11,24,02,41,6.70
2019,11,24,02,42,6.70
2019,11,24,02,43,6.70
2019,11,24,02,44,6.60
2019,11,24,02,45,6.60
2019,11,24,02,46,6.60
2019,11,24,02,47,6.60
2019,11,24,02,48,6.50
2019,11,24,02,49,6.50
2019,11,24,02,50,6.50
2019,11,24,02,51,6.50
2019,11,24,02,52,6.40
2019,11,24,02,53,6.40
2019,11,24,02,54,6.40
2019,11,24,02,55,6.40
2019,11,24,02,56,6.40
2019,11,24,02,57,6.40
2019,11,24,02,58,6.30
2019,11,24,02,59,6.30
2019,11,24,03,00,6.30
2019,11,24,03,01,6.30
2019,11,24,03,02,6.20
2019,11,24,03,03,6.20
2019,11,24,03,04,6.20
2019,11,24,03,05,6.20
2019,11,24,03,06,6.20
2019,11,24,03,07,6.10
2019,11,24,03,08,6.10
2019,11,24,03,09,6.10
2019,11,24,03,10,6.10
2019,11,24,03,11,6.00
2019,11,24,03,12,6.00
2019,11,24,03,13,5.90
2019,11,24,03,14,5.90
2019,11,24,03,15,5.90
2019,11,24,03,16,5.80
2019,11,24,03,17,5.80
2019,11,24,03,18,5.80
2019,11,24,03,19,5.80
2019,11,24,03,20,5.80
2019,11,24,03,21,5.80
2019,11,24,03,22,5.80
2019,11,24,03,23,5.80
2019,11,24,03,24,5.90
2019,11,24,03,25,5.90
2019,11,24,03,26,6.00
2019,11,24,03,27,6.10
2019,11,24,03,28,6.10
2019,11,24,03,29,6.20
2019,11,24,03,30,6.20
2019,11,24,03,31,6.30
2019,11,24,03,32,6.40
2019,11,24,03,33,6.40
2019,11,24,03,34,6.50
2019,11,24,03,35,6.50
2019,11,24,03,36,6.60
2019,11,24,03,37,6.60
2019,11,24,03,38,6.70
2019,11,24,03,39,6.70
2019,11,24,03,40,6.70
2019,11,24,03,41,6.80
2019,11,24,03,42,6.80
2019,11,24,03,43,6.80
2019,11,24,03,44,6.90
2019,11,24,03,45,6.90
2019,11,24,03,46,6.90
2019,11,24,03,47,7.00
2019,11,24,03,48,7.00
2019,11,24,03,49,7.10
2019,11,24,03,50,7.10
2019,11,24,03,51,7.10
2019,11,24,03,52,7.20
2019,11,24,03,53,7.20
2019,11,24,03,54,7.20
2019,11,24,03,55,7.20
2019,11,24,03,56,7.20
2019,11,24,03,57,7.20
2019,11,24,03,58,7.20
2019,11,24,03,59,7.20
2019,11,24,04,00,7.20
2019,11,24,04,01,7.20
2019,11,24,04,02,7.20
2019,11,24,04,03,7.20
2019,11,24,04,04,7.20
2019,11,24,04,05,7.10
2019,11,24,04,06,7.10
2019,11,24,04,07,7.10
2019,11,24,04,08,7.10
2019,11,24,04,09,7.10
2019,11,24,04,10,7.00
2019,11,24,04,11,7.00
2019,11,24,04,12,7.00
2019,11,24,04,13,6.90
2019,11,24,04,14,6.90
2019,11,24,04,15,6.90
2019,11,24,04,16,6.90
2019,11,24,04,17,6.80
2019,11,24,04,18,6.80
2019,11,24,04,19,6.80
2019,11,24,04,20,6.80
2019,11,24,04,21,6.80
2019,11,24,04,22,6.70
2019,11,24,04,23,6.70
2019,11,24,04,24,6.70
2019,11,24,04,25,6.70
2019,11,24,04,26,6.60
2019,11,24,04,27,6.60
2019,11,24,04,28,6.60
2019,11,24,04,29,6.60
2019,11,24,04,30,6.50
2019,11,24,04,31,6.50
2019,11,24,04,32,6.50
2019,11,24,04,33,6.40
2019,11,24,04,34,6.40
2019,11,24,04,35,6.30
2019,11,24,04,36,6.30
2019,11,24,04,37,6.30
2019,11,24,04,38,6.30
2019,11,24,04,39,6.20
2019,11,24,04,40,6.20
2019,11,24,04,41,6.10
2019,11,24,04,42,6.10
2019,11,24,04,43,6.10
2019,11,24,04,44,6.00
2019,11,24,04,45,6.00
2019,11,24,04,46,5.90
2019,11,24,04,47,5.90
2019,11,24,04,48,5.90
2019,11,24,04,49,5.90
2019,11,24,04,50,5.90
2019,11,24,04,51,5.90
2019,11,24,04,52,5.90
2019,11,24,04,53,5.80
2019,11,24,04,54,5.80
2019,11,24,04,55,5.80
2019,11,24,04,56,5.80
2019,11,24,04,57,5.80
2019,11,24,04,58,5.70
2019,11,24,04,59,5.70
2019,11,24,05,00,5.70
2019,11,24,05,01,5.70
2019,11,24,05,02,5.70
2019,11,24,05,03,5.70
2019,11,24,05,04,5.70
2019,11,24,05,05,5.70
2019,11,24,05,06,5.70
2019,11,24,05,07,5.70
2019,11,24,05,08,5.70
2019,11,24,05,09,5.70
2019,11,24,05,10,5.70
2019,11,24,05,11,5.70
2019,11,24,05,12,5.70
2019,11,24,05,13,5.70
2019,11,24,05,14,5.70
2019,11,24,05,15,5.70
2019,11,24,05,16,5.70
2019,11,24,05,17,5.70
2019,11,24,05,18,5.70
2019,11,24,05,19,5.80
2019,11,24,05,20,5.70
2019,11,24,05,21,5.80
2019,11,24,05,22,5.80
2019,11,24,05,23,5.70
2019,11,24,05,24,5.70
2019,11,24,05,25,5.70
2019,11,24,05,26,5.70
2019,11,24,05,27,5.70
2019,11,24,05,28,5.70
2019,11,24,05,29,5.70
2019,11,24,05,30,5.70
2019,11,24,05,31,5.70
2019,11,24,05,32,5.70
2019,11,24,05,33,5.70
2019,11,24,05,34,5.70
2019,11,24,05,35,5.80
2019,11,24,05,36,5.80
2019,11,24,05,37,5.80
2019,11,24,05,38,5.80
2019,11,24,05,39,5.80
2019,11,24,05,40,5.80
2019,11,24,05,41,5.80
2019,11,24,05,42,5.80
2019,11,24,05,43,5.80
2019,11,24,05,44,5.80
2019,11,24,05,45,5.80
2019,11,24,05,46,5.80
2019,11,24,05,47,5.80
2019,11,24,05,48,5.80
2019,11,24,05,49,5.70
2019,11,24,05,50,5.70
2019,11,24,05,51,5.70
2019,11,24,05,52,5.70
2019,11,24,05,53,5.70
2019,11,24,05,54,5.70
2019,11,24,05,55,5.60
2019,11,24,05,56,5.60
2019,11,24,05,57,5.60
2019,11,24,05,58,5.60
2019,11,24,05,59,5.50
2019,11,24,06,00,5.50
2019,11,24,06,01,5.50
2019,11,24,06,02,5.40
2019,11,24,06,03,5.40
2019,11,24,06,04,5.40
2019,11,24,06,05,5.40
2019,11,24,06,06,5.30
2019,11,24,06,07,5.30
2019,11,24,06,08,5.30
2019,11,24,06,09,5.20
2019,11,24,06,10,5.20
2019,11,24,06,11,5.20
2019,11,24,06,12,5.10
2019,11,24,06,13,5.10
2019,11,24,06,14,5.10
2019,11,24,06,15,5.10
2019,11,24,06,16,5.00
2019,11,24,06,17,5.00
2019,11,24,06,18,5.00
2019,11,24,06,19,4.90
2019,11,24,06,20,4.90
2019,11,24,06,21,4.90
2019,11,24,06,22,4.80
2019,11,24,06,23,4.80
2019,11,24,06,24,4.80
2019,11,24,06,25,4.80
2019,11,24,06,26,4.70
2019,11,24,06,27,4.70
2019,11,24,06,28,4.70
2019,11,24,06,29,4.60
2019,11,24,06,30,4.60
2019,11,24,06,31,4.60
2019,11,24,06,32,4.60
2019,11,24,06,33,4.50
2019,11,24,06,34,4.50
2019,11,24,06,35,4.50
2019,11,24,06,36,4.40
2019,11,24,06,37,4.40
2019,11,24,06,38,4.40
2019,11,24,06,39,4.40
2019,11,24,06,40,4.40
2019,11,24,06,41,4.30
2019,11,24,06,42,4.30
2019,11,24,06,43,4.30
2019,11,24,06,44,4.30
2019,11,24,06,45,4.30
2019,11,24,06,46,4.20
2019,11,24,06,47,4.20
2019,11,24,06,48,4.20
2019,11,24,06,49,4.20
2019,11,24,06,50,4.10
2019,11,24,06,51,4.10
2019,11,24,06,52,4.10
2019,11,24,06,53,4.10
2019,11,24,06,54,4.10
2019,11,24,06,55,4.00
2019,11,24,06,56,4.00
2019,11,24,06,57,4.00
2019,11,24,06,58,4.00
2019,11,24,06,59,4.00
2019,11,24,07,00,4.00
2019,11,24,07,01,3.90
2019,11,24,07,02,4.00
2019,11,24,07,03,3.90
2019,11,24,07,04,3.90
2019,11,24,07,05,3.90
2019,11,24,07,06,3.90
2019,11,24,07,07,3.90
2019,11,24,07,08,3.90
2019,11,24,07,09,3.90
2019,11,24,07,10,3.90
2019,11,24,07,11,3.90
2019,11,24,07,12,4.00
2019,11,24,07,13,4.00
2019,11,24,07,14,4.00
2019,11,24,07,15,4.10
2019,11,24,07,16,4.10
2019,11,24,07,17,4.10
2019,11,24,07,18,4.10
2019,11,24,07,19,4.10
2019,11,24,07,20,4.10
2019,11,24,07,21,4.10
2019,11,24,07,22,4.20
2019,11,24,07,23,4.20
2019,11,24,07,24,4.20
2019,11,24,07,25,4.20
2019,11,24,07,26,4.20
2019,11,24,07,27,4.20
2019,11,24,07,28,4.20
2019,11,24,07,29,4.20
2019,11,24,07,30,4.20
2019,11,24,07,31,4.20
2019,11,24,07,32,4.20
2019,11,24,07,33,4.20
2019,11,24,07,34,4.20
2019,11,24,07,35,4.20
2019,11,24,07,36,4.20
2019,11,24,07,37,4.20
2019,11,24,07,38,4.20
2019,11,24,07,39,4.10
2019,11,24,07,40,4.10
2019,11,24,07,41,4.10
2019,11,24,07,42,4.10
2019,11,24,07,43,4.10
2019,11,24,07,44,4.10
2019,11,24,07,45,4.10
2019,11,24,07,46,4.10
2019,11,24,07,47,4.10
2019,11,24,07,48,4.10
2019,11,24,07,49,4.10
2019,11,24,07,50,4.00
2019,11,24,07,51,4.00
2019,11,24,07,52,4.00
2019,11,24,07,53,4.00
2019,11,24,07,54,3.90
2019,11,24,07,55,3.90
2019,11,24,07,56,3.90
2019,11,24,07,57,3.90
2019,11,24,07,58,3.90
2019,11,24,07,59,3.80
2019,11,24,08,00,3.80
2019,11,24,08,01,3.80
2019,11,24,08,02,3.80
2019,11,24,08,03,3.80
2019,11,24,08,04,3.80
2019,11,24,08,05,3.70
2019,11,24,08,06,3.70
2019,11,24,08,07,3.70
2019,11,24,08,08,3.70
2019,11,24,08,09,3.70
2019,11,24,08,10,3.70
2019,11,24,08,11,3.70
2019,11,24,08,12,3.70
2019,11,24,08,13,3.70
2019,11,24,08,14,3.70
2019,11,24,08,15,3.80
2019,11,24,08,16,3.80
2019,11,24,08,17,3.80
2019,11,24,08,18,3.80
2019,11,24,08,19,3.90
2019,11,24,08,20,3.90
2019,11,24,08,21,3.90
2019,11,24,08,22,4.00
2019,11,24,08,23,4.00
2019,11,24,08,24,4.10
2019,11,24,08,25,4.10
2019,11,24,08,26,4.20
2019,11,24,08,27,4.30
2019,11,24,08,28,4.30
2019,11,24,08,29,4.40
2019,11,24,08,30,4.50
2019,11,24,08,31,4.60
2019,11,24,08,32,4.70
2019,11,24,08,33,4.80
2019,11,24,08,34,4.90
2019,11,24,08,35,5.00
2019,11,24,08,36,5.10
2019,11,24,08,37,5.20
2019,11,24,08,38,5.20
2019,11,24,08,39,5.30
2019,11,24,08,40,5.30
2019,11,24,08,41,5.40
2019,11,24,08,42,5.40
2019,11,24,08,43,5.40
2019,11,24,08,44,5.50
2019,11,24,08,45,5.50
2019,11,24,08,46,5.60
2019,11,24,08,47,5.60
2019,11,24,08,48,5.60
2019,11,24,08,49,5.60
2019,11,24,08,50,5.70
2019,11,24,08,51,5.70
2019,11,24,08,52,5.70
2019,11,24,08,53,5.80
2019,11,24,08,54,5.80
2019,11,24,08,55,5.80
2019,11,24,08,56,5.80
2019,11,24,08,57,5.90
2019,11,24,08,58,5.90
2019,11,24,08,59,5.90
2019,11,24,09,00,5.90
2019,11,24,09,01,5.90
2019,11,24,09,02,6.00
2019,11,24,09,03,6.00
2019,11,24,09,04,6.00
2019,11,24,09,05,6.10
2019,11,24,09,06,6.10
2019,11,24,09,07,6.10
2019,11,24,09,08,6.10
2019,11,24,09,09,6.10
2019,11,24,09,10,6.20
2019,11,24,09,11,6.20
2019,11,24,09,12,6.20
2019,11,24,09,13,6.30
2019,11,24,09,14,6.30
2019,11,24,09,15,6.30
2019,11,24,09,16,6.40
2019,11,24,09,17,6.40
2019,11,24,09,18,6.40
2019,11,24,09,19,6.40
2019,11,24,09,20,6.50
2019,11,24,09,21,6.50
2019,11,24,09,22,6.50
2019,11,24,09,23,6.60
2019,11,24,09,24,6.60
2019,11,24,09,25,6.60
2019,11,24,09,26,6.60
2019,11,24,09,27,6.60
2019,11,24,09,28,6.60
2019,11,24,09,29,6.70
2019,11,24,09,30,6.70
2019,11,24,09,31,6.70
2019,11,24,09,32,6.70
2019,11,24,09,33,6.70
2019,11,24,09,34,6.70
2019,11,24,09,35,6.70
2019,11,24,09,36,6.70
2019,11,24,09,37,6.80
2019,11,24,09,38,6.80
2019,11,24,09,39,6.80
2019,11,24,09,40,6.80
2019,11,24,09,41,6.80
2019,11,24,09,42,6.90
2019,11,24,09,43,6.90
2019,11,24,09,44,7.00
2019,11,24,09,45,7.00
2019,11,24,09,46,7.00
2019,11,24,09,47,7.00
2019,11,24,09,48,7.10
2019,11,24,09,49,7.10
2019,11,24,09,50,7.20
2019,11,24,09,51,7.20
2019,11,24,09,52,7.30
2019,11,24,09,53,7.30
2019,11,24,09,54,7.30
2019,11,24,09,55,7.40
2019,11,24,09,56,7.50
2019,11,24,09,57,7.50
2019,11,24,09,58,7.60
2019,11,24,09,59,7.70
2019,11,24,10,00,7.70
2019,11,24,10,01,7.70
2019,11,24,10,02,7.80
2019,11,24,10,03,7.80
2019,11,24,10,04,7.90
2019,11,24,10,05,7.90
2019,11,24,10,06,8.00
2019,11,24,10,07,8.00
2019,11,24,10,08,8.10
2019,11,24,10,09,8.10
2019,11,24,10,10,8.10
2019,11,24,10,11,8.20
2019,11,24,10,12,8.20
2019,11,24,10,13,8.20
2019,11,24,10,14,8.30
2019,11,24,10,15,8.30
2019,11,24,10,16,8.30
2019,11,24,10,17,8.30
2019,11,24,10,18,8.40
2019,11,24,10,19,8.40
2019,11,24,10,20,8.40
2019,11,24,10,21,8.40
2019,11,24,10,22,8.40
2019,11,24,10,23,8.50
2019,11,24,10,24,8.50
2019,11,24,10,25,8.50
2019,11,24,10,26,8.50
2019,11,24,10,27,8.60
2019,11,24,10,28,8.60
2019,11,24,10,29,8.60
2019,11,24,10,30,8.60
2019,11,24,10,31,8.60
2019,11,24,10,32,8.70
2019,11,24,10,33,8.70
2019,11,24,10,34,8.70
2019,11,24,10,35,8.80
2019,11,24,10,36,8.80
2019,11,24,10,37,8.80
2019,11,24,10,38,8.80
2019,11,24,10,39,8.90
2019,11,24,10,40,8.90
2019,11,24,10,41,8.90
2019,11,24,10,42,9.00
2019,11,24,10,43,9.00
2019,11,24,10,44,9.10
2019,11,24,10,45,9.10
2019,11,24,10,46,9.10
2019,11,24,10,47,9.20
2019,11,24,10,48,9.20
2019,11,24,10,49,9.20
2019,11,24,10,50,9.20
2019,11,24,10,51,9.30
2019,11,24,10,52,9.30
2019,11,24,10,53,9.30
2019,11,24,10,54,9.30
2019,11,24,10,55,9.30
2019,11,24,10,56,9.40
2019,11,24,10,57,9.40
2019,11,24,10,58,9.40
2019,11,24,10,59,9.40
2019,11,24,11,00,9.40
2019,11,24,11,01,9.40
2019,11,24,11,02,9.40
2019,11,24,11,03,9.50
2019,11,24,11,04,9.50
2019,11,24,11,05,9.50
2019,11,24,11,06,9.50
2019,11,24,11,07,9.50
2019,11,24,11,08,9.50
2019,11,24,11,09,9.60
2019,11,24,11,10,9.50
2019,11,24,11,11,9.60
2019,11,24,11,12,9.60
2019,11,24,11,13,9.60
2019,11,24,11,14,9.60
2019,11,24,11,15,9.60
2019,11,24,11,16,9.60
2019,11,24,11,17,9.70
2019,11,24,11,18,9.70
2019,11,24,11,19,9.70
2019,11,24,11,20,9.70
2019,11,24,11,21,9.70
2019,11,24,11,22,9.80
2019,11,24,11,23,9.80
2019,11,24,11,24,9.80
2019,11,24,11,25,9.80
2019,11,24,11,26,9.90
2019,11,24,11,27,9.90
2019,11,24,11,28,9.90
2019,11,24,11,29,9.90
2019,11,24,11,30,10.00
2019,11,24,11,31,10.00
2019,11,24,11,32,10.10
2019,11,24,11,33,10.10
2019,11,24,11,34,10.10
2019,11,24,11,35,10.10
2019,11,24,11,36,10.20
2019,11,24,11,37,10.20
2019,11,24,11,38,10.20
2019,11,24,11,39,10.20
2019,11,24,11,40,10.30
2019,11,24,11,41,10.30
2019,11,24,11,42,10.30
2019,11,24,11,43,10.30
2019,11,24,11,44,10.30
2019,11,24,11,45,10.30
2019,11,24,11,46,10.30
2019,11,24,11,47,10.30
2019,11,24,11,48,10.30
2019,11,24,11,49,10.30
2019,11,24,11,50,10.30
2019,11,24,11,51,10.40
2019,11,24,11,52,10.30
2019,11,24,11,53,10.40
2019,11,24,11,54,10.40
2019,11,24,11,55,10.40
2019,11,24,11,56,10.40
2019,11,24,11,57,10.40
2019,11,24,11,58,10.40
2019,11,24,11,59,10.40
2019,11,24,12,00,10.50
2019,11,24,12,01,10.50
2019,11,24,12,02,10.50
2019,11,24,12,03,10.60
2019,11,24,12,04,10.60
2019,11,24,12,05,10.60
2019,11,24,12,06,10.60
2019,11,24,12,07,10.70
2019,11,24,12,08,10.70
2019,11,24,12,09,10.70
2019,11,24,12,10,10.70
2019,11,24,12,11,10.70
2019,11,24,12,12,10.70
2019,11,24,12,13,10.80
2019,11,24,12,14,10.80
2019,11,24,12,15,10.80
2019,11,24,12,16,10.80
2019,11,24,12,17,10.80
2019,11,24,12,18,10.90
2019,11,24,12,19,10.90
2019,11,24,12,20,10.90
2019,11,24,12,21,10.90
2019,11,24,12,22,10.90
2019,11,24,12,23,10.90
2019,11,24,12,24,10.90
2019,11,24,12,25,11.00
2019,11,24,12,26,11.00
2019,11,24,12,27,11.00
2019,11,24,12,28,11.00
2019,11,24,12,29,11.00
2019,11,24,12,30,11.00
2019,11,24,12,31,10.90
2019,11,24,12,32,11.00
2019,11,24,12,33,10.90
2019,11,24,12,34,10.90
2019,11,24,12,35,10.90
2019,11,24,12,36,10.90
2019,11,24,12,37,10.90
2019,11,24,12,38,10.90
2019,11,24,12,39,10.90
2019,11,24,12,40,10.90
2019,11,24,12,41,10.90
2019,11,24,12,42,10.90
2019,11,24,12,43,10.90
2019,11,24,12,44,10.90
2019,11,24,12,45,11.00
2019,11,24,12,46,11.00
2019,11,24,12,47,11.00
2019,11,24,12,48,11.00
2019,11,24,12,49,11.00
2019,11,24,12,50,11.10
2019,11,24,12,51,11.10
2019,11,24,12,52,11.10
2019,11,24,12,53,11.10
2019,11,24,12,54,11.10
2019,11,24,12,55,11.10
2019,11,24,12,56,11.10
2019,11,24,12,57,11.10
2019,11,24,12,58,11.10
2019,11,24,12,59,11.10
2019,11,24,13,00,11.10
2019,11,24,13,01,11.10
2019,11,24,13,02,11.10
2019,11,24,13,03,11.10
2019,11,24,13,04,11.10
2019,11,24,13,05,11.10
2019,11,24,13,06,11.10
2019,11,24,13,07,11.10
2019,11,24,13,08,11.00
2019,11,24,13,09,11.00
2019,11,24,13,10,11.00
2019,11,24,13,11,10.90
2019,11,24,13,12,10.90
2019,11,24,13,13,10.90
2019,11,24,13,14,10.80
2019,11,24,13,15,10.80
2019,11,24,13,16,10.80
2019,11,24,13,17,10.80
2019,11,24,13,18,10.80
2019,11,24,13,19,10.80
2019,11,24,13,20,10.80
2019,11,24,13,21,10.80
2019,11,24,13,22,10.80
2019,11,24,13,23,10.80
2019,11,24,13,24,10.90
2019,11,24,13,25,10.90
2019,11,24,13,26,10.90
2019,11,24,13,27,10.90
2019,11,24,13,28,10.90
2019,11,24,13,29,11.00
2019,11,24,13,30,11.00
2019,11,24,13,31,11.10
2019,11,24,13,32,11.10
2019,11,24,13,33,11.10
2019,11,24,13,34,11.20
2019,11,24,13,35,11.20
2019,11,24,13,36,11.30
2019,11,24,13,37,11.30
2019,11,24,13,38,11.40
2019,11,24,13,39,11.40
2019,11,24,13,40,11.40
2019,11,24,13,41,11.40
2019,11,24,13,42,11.40
2019,11,24,13,43,11.40
2019,11,24,13,44,11.40
2019,11,24,13,45,11.40
2019,11,24,13,46,11.40
2019,11,24,13,47,11.40
2019,11,24,13,48,11.40
2019,11,24,13,49,11.40
2019,11,24,13,50,11.40
2019,11,24,13,51,11.40
2019,11,24,13,52,11.50
2019,11,24,13,53,11.50
2019,11,24,13,54,11.50
2019,11,24,13,55,11.50
2019,11,24,13,56,11.50
2019,11,24,13,57,11.50
2019,11,24,13,58,11.50
2019,11,24,13,59,11.50
2019,11,24,14,00,11.50
2019,11,24,14,01,11.50
2019,11,24,14,02,11.50
2019,11,24,14,03,11.50
2019,11,24,14,04,11.50
2019,11,24,14,05,11.50
2019,11,24,14,06,11.50
2019,11,24,14,07,11.60
2019,11,24,14,08,11.50
2019,11,24,14,09,11.50
2019,11,24,14,10,11.50
2019,11,24,14,11,11.50
2019,11,24,14,12,11.50
2019,11,24,14,13,11.50
2019,11,24,14,14,11.50
2019,11,24,14,15,11.50
2019,11,24,14,16,11.50
2019,11,24,14,17,11.50
2019,11,24,14,18,11.50
2019,11,24,14,19,11.50
2019,11,24,14,20,11.50
2019,11,24,14,21,11.50
2019,11,24,14,22,11.50
2019,11,24,14,23,11.50
2019,11,24,14,24,11.50
2019,11,24,14,25,11.50
2019,11,24,14,26,11.50
2019,11,24,14,27,11.50
2019,11,24,14,28,11.60
2019,11,24,14,29,11.50
2019,11,24,14,30,11.50
2019,11,24,14,31,11.50
2019,11,24,14,32,11.50
2019,11,24,14,33,11.40
2019,11,24,14,34,11.40
2019,11,24,14,35,11.40
2019,11,24,14,36,11.40
2019,11,24,14,37,11.30
2019,11,24,14,38,11.30
2019,11,24,14,39,11.30
2019,11,24,14,40,11.30
2019,11,24,14,41,11.30
2019,11,24,14,42,11.30
2019,11,24,14,43,11.20
2019,11,24,14,44,11.20
2019,11,24,14,45,11.10
2019,11,24,14,46,11.10
2019,11,24,14,47,11.10
2019,11,24,14,48,11.10
2019,11,24,14,49,11.10
2019,11,24,14,50,11.10
2019,11,24,14,51,11.10
2019,11,24,14,52,11.10
2019,11,24,14,53,11.10
2019,11,24,14,54,11.10
2019,11,24,14,55,11.10
2019,11,24,14,56,11.20
2019,11,24,14,57,11.20
2019,11,24,14,58,11.20
2019,11,24,14,59,11.20
2019,11,24,15,00,11.20
2019,11,24,15,01,11.20
2019,11,24,15,02,11.20
2019,11,24,15,03,11.20
2019,11,24,15,04,11.20
2019,11,24,15,05,11.20
2019,11,24,15,06,11.30
2019,11,24,15,07,11.30
2019,11,24,15,08,11.30
2019,11,24,15,09,11.30
2019,11,24,15,10,11.20
2019,11,24,15,11,11.20
2019,11,24,15,12,11.20
2019,11,24,15,13,11.20
2019,11,24,15,14,11.20
2019,11,24,15,15,11.20
2019,11,24,15,16,11.20
2019,11,24,15,17,11.10
2019,11,24,15,18,11.10
2019,11,24,15,19,11.00
2019,11,24,15,20,10.90
2019,11,24,15,21,10.90
2019,11,24,15,22,10.80
2019,11,24,15,23,10.70
2019,11,24,15,24,10.60
2019,11,24,15,25,10.60
2019,11,24,15,26,10.50
2019,11,24,15,27,10.40
2019,11,24,15,28,10.40
2019,11,24,15,29,10.30
2019,11,24,15,30,10.30
2019,11,24,15,31,10.20
2019,11,24,15,32,10.20
2019,11,24,15,33,10.10
2019,11,24,15,34,10.10
2019,11,24,15,35,10.10
2019,11,24,15,36,10.00
2019,11,24,15,37,10.00
2019,11,24,15,38,9.90
2019,11,24,15,39,9.90
2019,11,24,15,40,9.90
2019,11,24,15,41,9.80
2019,11,24,15,42,9.80
2019,11,24,15,43,9.80
2019,11,24,15,44,9.70
2019,11,24,15,45,9.70
2019,11,24,15,46,9.70
2019,11,24,15,47,9.60
2019,11,24,15,48,9.60
2019,11,24,15,49,9.60
2019,11,24,15,50,9.50
2019,11,24,15,51,9.50
2019,11,24,15,52,9.40
2019,11,24,15,53,9.40
2019,11,24,15,54,9.40
2019,11,24,15,55,9.30
2019,11,24,15,56,9.30
2019,11,24,15,57,9.30
2019,11,24,15,58,9.20
2019,11,24,15,59,9.20
2019,11,24,16,00,9.10
2019,11,24,16,01,9.10
2019,11,24,16,02,9.10
2019,11,24,16,03,9.10
2019,11,24,16,04,9.00
2019,11,24,16,05,9.00
2019,11,24,16,06,9.00
2019,11,24,16,07,8.90
2019,11,24,16,08,8.90
2019,11,24,16,09,8.90
2019,11,24,16,10,8.90
2019,11,24,16,11,8.80
2019,11,24,16,12,8.80
2019,11,24,16,13,8.80
2019,11,24,16,14,8.80
2019,11,24,16,15,8.70
2019,11,24,16,16,8.70
2019,11,24,16,17,8.70
2019,11,24,16,18,8.70
2019,11,24,16,19,8.70
2019,11,24,16,20,8.60
2019,11,24,16,21,8.60
2019,11,24,16,22,8.60
2019,11,24,16,23,8.50
2019,11,24,16,24,8.50
2019,11,24,16,25,8.50
2019,11,24,16,26,8.50
2019,11,24,16,27,8.40
2019,11,24,16,28,8.40
2019,11,24,16,29,8.40
2019,11,24,16,30,8.40
2019,11,24,16,31,8.40
2019,11,24,16,32,8.40
2019,11,24,16,33,8.40
2019,11,24,16,34,8.30
2019,11,24,16,35,8.30
2019,11,24,16,36,8.30
2019,11,24,16,37,8.30
2019,11,24,16,38,8.30
2019,11,24,16,39,8.30
2019,11,24,16,40,8.30
2019,11,24,16,41,8.30
2019,11,24,16,42,8.30
2019,11,24,16,43,8.20
2019,11,24,16,44,8.20
2019,11,24,16,45,8.20
2019,11,24,16,46,8.20
2019,11,24,16,47,8.20
2019,11,24,16,48,8.20
2019,11,24,16,49,8.20
2019,11,24,16,50,8.20
2019,11,24,16,51,8.20
2019,11,24,16,52,8.20
2019,11,24,16,53,8.20
2019,11,24,16,54,8.20
2019,11,24,16,55,8.10
2019,11,24,16,56,8.10
2019,11,24,16,57,8.10
2019,11,24,16,58,8.10
2019,11,24,16,59,8.00
2019,11,24,17,00,8.00
2019,11,24,17,01,8.00
2019,11,24,17,02,8.00
2019,11,24,17,03,7.90
2019,11,24,17,04,7.90
2019,11,24,17,05,7.90
2019,11,24,17,06,7.90
2019,11,24,17,07,7.90
2019,11,24,17,08,7.90
2019,11,24,17,09,7.90
2019,11,24,17,10,7.90
2019,11,24,17,11,7.80
2019,11,24,17,12,7.80
2019,11,24,17,13,7.80
2019,11,24,17,14,7.80
2019,11,24,17,15,7.80
2019,11,24,17,16,7.80
2019,11,24,17,17,7.80
2019,11,24,17,18,7.80
2019,11,24,17,19,7.90
2019,11,24,17,20,7.90
2019,11,24,17,21,7.90
2019,11,24,17,22,7.90
2019,11,24,17,23,7.90
2019,11,24,17,24,7.90
2019,11,24,17,25,7.90
2019,11,24,17,26,7.90
2019,11,24,17,27,8.00
2019,11,24,17,28,8.00
2019,11,24,17,29,8.00
2019,11,24,17,30,8.00
2019,11,24,17,31,8.00
2019,11,24,17,32,8.00
2019,11,24,17,33,8.00
2019,11,24,17,34,8.00
2019,11,24,17,35,8.00
2019,11,24,17,36,8.00
2019,11,24,17,37,8.00
2019,11,24,17,38,8.00
2019,11,24,17,39,8.00
2019,11,24,17,40,8.00
2019,11,24,17,41,8.00
2019,11,24,17,42,8.00
2019,11,24,17,43,8.00
2019,11,24,17,44,8.00
2019,11,24,17,45,8.00
2019,11,24,17,46,8.00
2019,11,24,17,47,8.00
2019,11,24,17,48,8.00
2019,11,24,17,49,7.90
2019,11,24,17,50,7.90
2019,11,24,17,51,7.90
2019,11,24,17,52,7.90
2019,11,24,17,53,7.90
2019,11,24,17,54,7.90
2019,11,24,17,55,7.90